Regional Weather Roundup
Issued by NWS

Home | Current Version | Previous Version | Graphics & Text | Print | Product List | Glossary Off
Versions: 1 2 3 4 5 6 7 8 9 10 11 12 13 14 15 16 17 18 19 20 21 22 23 24 25 26 27

000
ASUS45 KSLC 270510
RWRUT

UTAH REGIONAL WEATHER ROUNDUP
NATIONAL WEATHER SERVICE SALT LAKE CITY UT
1100 PM MDT SAT MAY 26 2018

UTZ001>011-023>025-270600-

NORTHERN UTAH

CITY           SKY/WX    TMP DP  RH WIND       PRES   REMARKS
BRIGHAM CITY   MOCLDY    69  28  21 NE3       29.81R
HILL AFB       CLOUDY    65  28  25 E13       29.81S
LOGAN          PTCLDY    56  44  64 NW10      29.83R
OGDEN          CLOUDY    63  30  28 W9        29.79R
SALT LAKE CITY MOCLDY    70  39  32 W3        29.78R
TOOELE VALLEY  CLOUDY    66  46  48 NW22G29   29.82R
WENDOVER       PTCLDY    61  37  41 NW33G41   29.86S
HEBER CITY       N/A     50  32  50 E8        29.85F
WEST JORDAN    CLOUDY    66  38  35 NW9G16    29.81S

$$

UTZ011>015-024>027-270600-

CENTRAL/NORTHEAST UTAH

CITY           SKY/WX    TMP DP  RH WIND       PRES   REMARKS
PROVO AIRPORT  CLOUDY    64  34  32 NE6       29.80
MOAB/CANYONLAN PTCLDY    74   6   7 SW10      29.70R
DELTA          CLOUDY    68  21  17 NE8G20    29.85R
PRICE          MOCLDY    66  21  18 NW16G23   29.81S
ROOSEVELT      MOCLDY    66  28  24 SW13      29.77R
VERNAL         MOCLDY    63  31  30 CALM      29.76

$$

UTZ013>016-019>022-027-270600-

SOUTHERN UTAH

CITY           SKY/WX    TMP DP  RH WIND       PRES   REMARKS
BRYCE CANYON   MOCLDY    51  22  31 W10       30.00R
CEDAR CITY     PTCLDY    53  24  32 S5        29.92R
MILFORD        CLOUDY    62  26  25 S9        29.87R
ST GEORGE      MOCLDY    70  28  21 S7        29.82R
HANKSVILLE     PTCLDY    72  21  15 NW9       29.77R
BLANDING         N/A     64  13  13 S14       29.96R

$$

REGIONAL REPORTS     COLORADO/ARIZONA

CITY           SKY/WX    TMP DP  RH WIND       PRES   REMARKS
CRAIG, CO      CLOUDY    69  31  24 SW10      29.89R
GRAND JUNCTION CLOUDY    78  27  15 S17       29.78R
RIFLE, CO      CLOUDY    72  26  18 S7        29.85R
MONTROSE, CO   CLOUDY    72  23  16 SW13G25   29.90R
CORTEZ, CO     PTCLDY    69   7   9 SW17      29.93R
COLORADO CITY    N/A     54  27  35 CALM      29.95R
PAGE, AZ       CLEAR     69  28  21 W12G24    29.85R
GRAND CANYON   CLEAR     50  22  33 SW8       30.02
KINGMAN, AZ    CLEAR     62  28  27 S8        29.89R
FLAGSTAFF, AZ  CLEAR     53  23  31 SW16G23   30.03R

$$

REGIONAL REPORTS    NEVADA/IDAHO/WYOMING

CITY           SKY/WX    TMP DP  RH WIND       PRES   REMARKS
LAS VEGAS, NV  PTCLDY    76  30  18 SW7       29.78
ELY, NY        PTCLDY    47  34  60 W6        30.00R
ELKO, NV       MOCLDY    44  41  89 SW5       30.02
POCATELLO, ID  LGT RAIN  55  47  74 SW18      29.96R
BURLEY, ID     PTCLDY    53  45  74 E5        29.96R
FORT BRIDGER,    N/A     60  24  25 W17G23    29.97S
EVANSTON, WY   PTCLDY    54  27  35 CALM      29.96R
ROCK SPRINGS,  CLOUDY    64  20  18 W3        29.90

$$




USA.gov is the U.S. government's official web portal to all federal, state and local government web resources and services.